Temp
7 7 7 8 8 8 7 8 8 8 9 9 8 8 7 8 9 9 9 11 11 10 11 11 12 13 14 15 16 16 19 19 21 22 23 24 23 22 22 22 22 23 23 21 20
7 7 7 7 7 8 8 7 8 8 8 8 8 8 8 8 9 9 9 10 11 11 10 12 13 13 15 15 15 17 18 20 23 23 23 23 21 22 22 21 22 22 22 20 19
3 4 5 6 6 7 7 7 8 8 8 8 8 8 8 8 9 10 10 10 10 10 11 12 13 14 15 16 16 17 17 21 21 20 20 21 21 20 21 21 23 23 23 21 20
2 3 3 4 5 6 7 8 8 8 8 8 8 8 8 8 12 10 10 10 10 10 10 12 13 14 15 16 16 16 18 19 20 19 17 18 19 20 20 20 21 22 22 21 20
2 2 3 3 4 6 7 7 7 8 7 8 8 8 8 8 11 10 9 10 10 10 10 12 13 15 15 17 17 16 17 18 17 17 16 16 17 18 19 19 19 20 20 19 19
2 2 2 2 3 5 6 7 7 7 7 7 7 7 7 9 10 10 9 9 10 10 10 11 13 14 15 16 15 16 16 17 16 16 16 16 17 17 17 18 18 18 19 19 19
2 2 2 2 3 4 5 6 7 6 6 7 7 7 7 10 8 8 9 9 10 10 10 10 11 12 13 14 14 14 14 16 16 16 16 16 16 16 17 17 18 18 19 19 19
2 2 2 2 2 3 4 6 6 6 6 7 7 6 8 8 8 9 8 9 9 10 11 11 10 11 12 12 13 14 15 15 18 17 17 15 15 20 19 18 18 18 19 19 19
1 1 1 2 2 3 3 5 6 7 6 6 6 6 10 8 8 8 9 10 9 10 10 10 10 10 12 12 13 14 15 16 18 18 17 15 16 20 18 18 18 18 19 19 19
1 2 1 2 3 3 3 4 6 6 5 5 6 7 8 9 8 8 8 9 10 10 10 11 11 11 10 11 14 16 16 16 16 18 16 15 16 17 17 17 17 17 18 18 18
1 1 2 2 2 3 3 3 5 6 5 7 7 9 8 7 7 8 8 9 10 11 11 11 12 12 14 15 16 16 14 15 17 16 15 15 16 17 17 17 17 17 17 17 18
1 1 1 2 2 3 2 2 4 5 5 6 8 8 8 8 8 8 8 10 10 10 12 10 10 13 14 14 14 13 13 14 15 15 14 14 15 16 17 17 17 17 17 17 17
1 1 1 2 2 2 2 2 3 4 6 7 7 8 7 8 10 8 8 10 11 11 10 11 13 12 13 12 12 12 12 12 12 13 14 14 14 18 19 18 18 17 16 16 17
0 1 1 1 2 2 3 2 3 4 5 6 7 7 7 8 9 9 9 10 11 11 11 11 13 11 11 11 12 12 14 13 12 11 12 13 13 16 18 19 19 18 18 17 17
1 1 1 0 1 2 3 3 3 3 8 8 7 7 8 9 9 8 9 9 11 11 11 11 10 11 10 11 12 11 12 11 11 11 10 12 10 15 17 17 17 18 18 18 18
1 1 2 2 1 1 2 3 2 4 8 6 5 6 7 9 9 8 8 8 10 11 10 12 11 11 11 11 11 11 10 10 10 9 8 12 13 15 17 19 20 20 19 18 18
1 1 2 2 2 2 2 2 4 6 9 6 7 7 8 8 8 8 8 8 9 7 7 9 10 10 11 10 10 10 8 10 9 8 10 16 14 14 17 17 18 18 18 17 16
1 2 2 2 2 2 2 2 6 7 9 9 8 8 7 8 9 9 8 7 10 10 9 8 10 11 9 9 10 9 9 10 11 13 14 16 13 16 18 18 17 17 17 16 15
1 2 2 2 2 2 3 4 6 10 9 8 8 7 7 9 9 9 9 9 10 10 9 10 9 11 11 11 11 9 7 10 9 10 10 12 15 17 18 18 18 17 16 15 15
1 1 2 2 2 2 3 6 5 10 9 10 8 9 7 8 9 9 8 11 10 11 12 10 8 10 10 10 10 9 11 7 7 8 11 14 15 15 17 18 18 17 15 15 13
1 2 1 2 2 2 5 5 7 9 10 10 10 9 9 8 10 9 9 10 12 11 11 10 9 8 8 8 10 8 7 8 9 9 10 11 14 17 16 16 16 15 15 13 13
1 2 2 2 3 3 5 5 9 9 8 10 11 11 10 10 11 11 11 11 11 11 9 10 9 7 8 11 11 12 9 9 7 10 8 8 10 15 15 16 15 15 14 13 12
2 2 2 2 5 5 5 6 8 8 9 10 10 11 11 11 10 11 11 10 9 10 10 10 7 8 8 10 11 10 10 10 9 7 7 8 11 15 14 14 15 14 14 14 12
2 2 2 2 4 6 5 6 7 8 9 10 10 11 11 10 11 10 9 9 9 10 8 10 9 8 10 10 10 6 8 9 6 7 9 10 11 13 14 14 13 14 13 14 13
4 3 4 4 6 6 7 7 8 9 9 10 10 11 11 10 9 9 10 9 9 9 8 9 6 7 8 9 8 8 8 9 6 6 6 9 10 11 12 13 13 13 13 13 12
2 4 4 6 7 8 7 6 9 8 10 9 10 10 10 10 10 9 9 9 10 9 8 8 7 7 6 9 10 10 11 9 8 8 7 7 7 9 10 12 12 12 12 12 11
2 3 3 6 8 9 8 9 10 10 9 9 10 10 10 9 9 8 9 10 10 8 8 8 6 7 8 10 10 11 8 8 8 8 7 7 10 12 11 12 11 8 8 9 9
Height
1486 1484 1482 1481 1480 1479 1478 1478 1477 1475 1474 1473 1473 1473 1473 1474 1474 1476 1476 1481 1481 1481 1482 1485 1486 1486 1487 1489 1490 1492 1484 1479 1473 1470 1469 1467 1472 1476 1478 1479 1479 1479 1479 1481 1481
1482 1481 1479 1477 1476 1475 1475 1475 1474 1473 1471 1471 1471 1472 1472 1473 1474 1473 1475 1475 1477 1479 1480 1483 1484 1486 1484 1485 1488 1488 1481 1473 1466 1464 1467 1468 1474 1473 1477 1478 1477 1478 1480 1480 1481
1479 1476 1475 1474 1472 1471 1472 1472 1471 1470 1470 1469 1469 1470 1471 1473 1475 1468 1469 1472 1475 1475 1480 1482 1482 1484 1482 1481 1483 1482 1478 1469 1468 1470 1473 1472 1473 1476 1476 1474 1473 1474 1477 1479 1481
1477 1474 1471 1469 1468 1468 1468 1467 1468 1467 1468 1467 1467 1468 1470 1472 1471 1465 1466 1468 1470 1474 1477 1480 1482 1482 1479 1477 1479 1479 1476 1475 1471 1473 1478 1477 1476 1474 1474 1475 1474 1475 1474 1476 1480
1473 1470 1468 1466 1464 1463 1463 1463 1461 1464 1465 1465 1465 1466 1469 1471 1468 1464 1465 1466 1469 1472 1474 1477 1479 1478 1476 1473 1475 1477 1478 1475 1476 1476 1478 1478 1476 1474 1472 1474 1475 1473 1474 1476 1478
1469 1465 1463 1460 1458 1457 1457 1458 1459 1460 1461 1462 1463 1464 1468 1468 1463 1464 1466 1467 1468 1470 1472 1475 1477 1477 1476 1474 1476 1474 1478 1475 1475 1475 1476 1475 1472 1474 1471 1470 1471 1471 1471 1472 1474
1465 1461 1458 1455 1453 1452 1452 1452 1454 1456 1458 1458 1462 1463 1465 1463 1461 1461 1464 1467 1467 1468 1471 1473 1477 1479 1479 1478 1478 1479 1479 1474 1470 1471 1471 1474 1466 1462 1462 1465 1463 1463 1464 1466 1468
1461 1456 1454 1450 1448 1447 1446 1446 1449 1451 1454 1456 1459 1462 1461 1457 1459 1460 1462 1466 1467 1468 1470 1473 1477 1480 1480 1480 1479 1477 1474 1471 1456 1462 1465 1472 1460 1447 1453 1455 1455 1456 1457 1458 1459
1456 1453 1449 1446 1444 1442 1441 1442 1444 1446 1451 1454 1458 1460 1458 1454 1456 1458 1462 1465 1467 1468 1470 1472 1476 1479 1481 1479 1476 1471 1464 1459 1455 1459 1463 1465 1454 1446 1451 1451 1451 1450 1450 1451 1451
1451 1447 1443 1442 1441 1438 1437 1437 1439 1440 1447 1453 1456 1462 1454 1452 1453 1456 1461 1464 1466 1467 1471 1473 1474 1477 1481 1478 1465 1453 1458 1457 1458 1455 1461 1459 1452 1449 1448 1448 1447 1447 1447 1446 1446
1447 1443 1440 1438 1437 1435 1435 1435 1441 1436 1439 1440 1441 1444 1446 1450 1452 1455 1460 1464 1466 1467 1467 1471 1471 1468 1462 1462 1459 1459 1464 1459 1454 1457 1459 1453 1446 1443 1442 1440 1439 1439 1440 1439 1440
1442 1439 1437 1435 1433 1432 1432 1431 1430 1432 1436 1438 1438 1443 1445 1448 1451 1456 1460 1462 1464 1465 1465 1474 1470 1463 1463 1465 1465 1467 1466 1463 1458 1458 1459 1451 1434 1435 1432 1424 1427 1430 1430 1431 1432
1437 1434 1432 1430 1429 1428 1427 1426 1429 1429 1427 1433 1437 1440 1444 1448 1448 1454 1458 1458 1461 1463 1465 1462 1459 1465 1465 1467 1469 1467 1468 1468 1469 1463 1458 1452 1429 1413 1408 1411 1414 1417 1420 1422 1422
1432 1430 1426 1426 1426 1423 1424 1423 1425 1427 1428 1430 1433 1437 1442 1444 1447 1451 1456 1458 1459 1460 1461 1461 1459 1466 1466 1466 1466 1465 1460 1463 1467 1470 1460 1457 1440 1418 1410 1407 1406 1409 1411 1411 1413
1427 1423 1420 1418 1419 1420 1422 1419 1422 1428 1406 1424 1430 1433 1436 1441 1444 1451 1455 1459 1456 1455 1459 1460 1462 1464 1468 1465 1465 1468 1467 1469 1467 1467 1469 1457 1467 1406 1407 1407 1405 1404 1404 1404 1406
1420 1413 1406 1405 1411 1415 1417 1417 1421 1425 1397 1419 1425 1430 1434 1439 1443 1449 1454 1459 1458 1457 1459 1456 1462 1464 1463 1465 1466 1469 1468 1470 1469 1473 1468 1443 1441 1400 1400 1393 1388 1389 1395 1403 1403
1413 1405 1399 1398 1405 1411 1416 1417 1418 1404 1406 1417 1418 1426 1431 1435 1441 1447 1451 1455 1454 1463 1462 1460 1458 1463 1464 1465 1466 1468 1474 1464 1467 1471 1450 1419 1427 1409 1395 1398 1395 1396 1397 1401 1403
1408 1400 1397 1398 1404 1409 1414 1420 1405 1399 1398 1405 1415 1425 1431 1435 1438 1441 1448 1454 1450 1449 1452 1460 1453 1452 1460 1461 1460 1465 1468 1460 1449 1435 1424 1414 1418 1399 1387 1390 1393 1392 1395 1397 1399
1403 1400 1397 1397 1403 1408 1414 1414 1397 1391 1400 1405 1419 1425 1428 1432 1434 1439 1440 1445 1444 1448 1452 1449 1453 1449 1454 1455 1459 1464 1470 1461 1462 1452 1449 1418 1401 1388 1386 1385 1382 1386 1392 1395 1397
1402 1400 1399 1400 1405 1410 1414 1406 1405 1397 1400 1406 1411 1418 1424 1428 1431 1435 1441 1436 1441 1442 1444 1445 1453 1450 1453 1457 1458 1459 1457 1467 1469 1458 1432 1399 1389 1386 1380 1377 1377 1382 1390 1392 1396
1401 1402 1404 1404 1408 1410 1404 1409 1406 1404 1405 1406 1408 1413 1419 1425 1425 1432 1435 1435 1434 1437 1443 1448 1451 1455 1459 1455 1447 1457 1460 1461 1454 1450 1431 1412 1381 1374 1377 1379 1379 1385 1388 1392 1393
1399 1403 1409 1410 1414 1413 1412 1411 1406 1410 1412 1410 1408 1407 1414 1420 1421 1423 1426 1429 1435 1437 1443 1447 1452 1453 1447 1440 1442 1441 1449 1452 1452 1434 1436 1430 1393 1381 1382 1380 1384 1384 1386 1388 1389
1405 1408 1414 1413 1410 1411 1411 1409 1410 1412 1411 1410 1411 1412 1415 1417 1425 1423 1426 1435 1438 1440 1440 1445 1453 1447 1441 1438 1438 1441 1438 1437 1439 1439 1427 1427 1387 1370 1383 1381 1381 1381 1381 1382 1384
1409 1414 1418 1414 1410 1410 1411 1413 1414 1415 1413 1412 1413 1414 1416 1420 1423 1426 1431 1437 1440 1442 1444 1444 1445 1445 1433 1431 1436 1447 1436 1433 1441 1431 1411 1397 1382 1372 1374 1374 1380 1377 1378 1376 1377
1411 1415 1415 1414 1411 1412 1413 1415 1414 1413 1416 1415 1417 1415 1417 1422 1426 1429 1430 1436 1440 1442 1445 1446 1450 1444 1440 1434 1433 1431 1426 1420 1426 1420 1415 1386 1388 1372 1375 1372 1370 1372 1371 1373 1375
1413 1411 1410 1411 1411 1413 1414 1418 1413 1417 1415 1417 1416 1420 1420 1420 1425 1428 1432 1436 1431 1439 1443 1444 1444 1442 1437 1424 1418 1412 1406 1408 1407 1404 1398 1395 1386 1381 1372 1367 1367 1366 1365 1369 1370
1418 1417 1417 1415 1413 1410 1413 1414 1413 1416 1420 1420 1420 1420 1422 1426 1429 1431 1432 1433 1434 1437 1438 1442 1444 1441 1424 1416 1410 1402 1408 1405 1402 1399 1396 1387 1375 1368 1365 1363 1363 1367 1368 1369 1369
Wind_Speed
15 14 16 17 17 19 17 15 15 15 14 13 12 13 8 7 10 16 18 12 12 17 4 6 8 9 9 9 12 14 13 16 21 21 15 10 9 15 11 14 8 12 13 4 4
20 16 12 15 17 17 19 17 14 14 13 13 12 10 7 8 11 19 18 17 13 11 12 9 11 12 14 14 10 14 13 20 16 14 13 14 13 15 11 19 19 13 10 3 3
19 21 18 14 16 16 19 20 16 13 13 12 11 9 10 7 9 17 22 19 16 12 10 13 10 13 15 12 17 16 19 14 14 9 10 14 14 16 12 14 18 21 16 9 6
21 21 20 18 16 16 16 23 17 13 12 11 10 8 9 8 6 4 15 20 19 16 13 13 14 14 11 11 17 16 17 23 13 8 11 13 18 19 23 21 18 16 11 7 10
25 23 22 21 17 19 17 17 19 15 12 11 9 7 8 9 14 9 6 9 16 16 17 16 16 15 12 11 10 13 18 14 16 16 17 16 20 20 23 22 21 23 19 19 19
25 25 24 23 20 17 18 17 21 17 12 11 10 8 7 11 11 14 6 4 9 18 19 14 7 11 6 9 10 2 13 17 16 18 19 19 23 24 21 27 29 28 28 28 27
26 26 26 23 21 21 15 18 18 19 13 12 11 8 9 11 5 7 14 6 7 15 19 15 7 6 4 5 11 9 14 15 19 21 15 13 20 25 34 31 31 30 29 32 32
25 30 26 25 22 20 20 16 19 22 16 13 11 7 7 13 12 8 7 8 6 9 11 15 10 6 8 1 4 7 12 12 3 8 15 10 17 9 10 19 28 29 30 31 31
26 26 27 25 23 20 21 16 26 27 19 15 11 8 7 8 10 11 9 10 10 10 9 13 11 5 5 9 8 10 10 13 9 9 8 14 12 7 4 10 15 20 20 24 27
25 27 23 20 21 20 18 18 23 24 19 14 6 6 11 8 9 10 12 12 12 15 12 10 8 6 7 10 8 11 15 12 11 4 8 15 21 20 24 23 24 23 24 25 26
24 23 20 17 19 17 16 14 14 15 31 9 15 4 13 10 10 11 15 15 13 14 7 10 8 13 17 17 15 9 9 11 10 8 16 21 22 20 23 27 27 28 29 31 31
23 25 21 18 18 17 16 15 6 3 9 10 13 9 11 12 9 13 18 13 13 12 10 5 12 15 11 10 11 13 13 15 14 11 12 18 28 25 27 29 31 32 34 35 34
27 20 22 20 20 20 17 20 16 14 5 17 18 15 11 11 9 19 21 16 13 14 15 11 2 4 14 11 12 13 12 11 14 17 18 21 25 17 10 14 22 30 34 37 38
21 23 23 23 20 13 13 12 18 17 4 10 13 11 12 9 5 16 21 11 7 15 12 10 8 5 9 13 11 12 8 8 10 8 6 4 11 15 16 16 13 15 18 20 23
28 32 27 27 20 11 7 5 14 16 6 17 11 11 20 13 19 13 20 8 11 8 7 4 6 12 12 12 8 7 3 6 8 10 13 14 7 13 5 9 11 13 17 16 17
32 39 35 30 22 20 13 6 17 2 5 7 8 13 18 16 9 15 18 5 3 7 11 10 4 5 9 7 10 4 4 7 9 5 8 14 16 19 11 16 16 12 21 7 12
37 27 17 13 12 14 10 12 4 5 12 10 9 14 17 15 11 13 14 11 8 5 8 10 16 8 10 8 6 7 1 2 3 4 7 6 9 18 17 16 7 6 12 16 13
38 14 8 13 13 16 18 2 7 7 6 7 15 17 9 17 10 15 15 12 16 10 4 8 6 17 12 14 5 12 9 4 5 7 11 11 10 8 8 6 8 14 18 15 16
32 8 4 13 22 16 8 4 2 11 10 13 17 9 8 19 8 11 13 11 13 13 7 6 3 1 10 7 11 5 8 10 13 18 11 9 20 22 24 23 20 20 19 16 11
32 4 3 11 20 17 4 7 4 3 14 18 7 6 8 17 10 13 13 12 9 17 12 2 3 6 6 6 9 11 3 2 4 5 11 11 19 14 13 16 11 5 6 10 10
6 2 8 18 20 4 3 2 2 12 13 2 9 10 10 15 10 15 16 5 15 13 14 7 4 5 3 11 13 10 7 6 6 7 6 14 11 8 12 8 12 11 9 8 12
6 3 17 17 3 2 3 3 12 13 1 2 7 6 16 16 10 11 8 2 9 10 11 8 3 6 12 9 9 13 13 17 7 8 6 11 19 16 12 14 4 7 11 8 11
6 6 11 1 3 2 2 3 8 3 2 2 4 2 6 13 6 5 6 4 10 11 9 10 5 3 2 3 12 11 16 17 18 14 20 15 16 2 6 10 20 17 16 14 9
4 3 1 4 6 7 4 4 5 3 7 9 9 11 10 12 5 7 6 4 8 11 6 6 5 8 7 6 5 6 15 16 12 8 17 22 31 27 24 20 20 20 26 25 15
4 2 1 2 4 7 5 3 10 4 3 3 4 7 6 4 4 3 4 5 6 8 6 5 4 11 16 20 18 19 22 22 18 19 14 28 26 28 23 22 13 22 19 16 12
5 4 4 4 10 6 4 2 3 4 1 3 7 6 4 3 2 4 7 6 5 9 10 5 4 4 12 19 16 16 22 16 15 17 16 21 26 24 22 21 14 19 18 16 15
11 5 3 5 8 6 6 8 4 5 4 7 6 4 3 4 1 1 3 2 1 3 11 5 3 3 6 12 20 7 2 8 11 13 11 10 18 15 14 13 11 9 11 15 14
Wind_Direction
300 298 317 290 294 274 280 295 310 299 281 277 271 261 249 237 224 222 223 219 227 240 206 210 212 204 194 208 223 237 249 237 235 241 248 256 225 231 233 250 222 219 250 79 112
275 283 306 307 288 282 269 278 297 304 283 277 267 255 232 213 220 230 221 217 228 221 221 211 209 201 197 202 210 225 229 240 246 248 245 263 219 234 218 229 235 222 224 221 186
335 321 281 294 293 279 264 265 282 297 281 272 262 246 223 203 260 252 244 228 216 207 203 217 221 208 215 207 211 224 246 241 249 295 277 267 237 250 249 252 224 225 222 203 212
325 324 324 284 284 273 267 258 261 281 276 263 253 237 210 187 232 186 213 214 217 215 200 196 205 207 215 203 218 237 253 257 276 240 249 250 256 249 245 250 253 246 256 227 237
327 322 315 318 279 268 260 261 240 259 264 254 244 219 182 214 241 261 207 209 216 208 194 188 203 209 216 208 212 237 257 245 262 257 256 261 260 261 258 250 253 258 249 251 249
326 321 314 306 288 276 260 256 255 239 247 238 237 211 203 233 225 233 206 214 197 201 189 193 215 222 267 234 211 310 266 270 254 257 251 259 260 255 248 250 254 252 250 248 246
316 318 310 301 301 273 272 249 254 229 229 225 225 210 230 219 238 220 209 201 193 200 200 196 216 186 201 253 233 266 264 265 250 244 238 256 262 250 250 250 251 249 247 248 248
314 312 306 300 296 288 272 254 241 231 219 216 210 195 243 230 228 219 196 205 195 184 195 191 185 216 225 178 202 236 244 257 145 231 235 223 261 254 235 241 246 248 248 249 247
310 305 300 298 301 287 282 267 230 224 206 197 186 195 240 244 209 200 183 181 170 155 159 166 169 185 210 230 231 218 256 218 248 197 244 208 278 275 235 267 265 245 246 248 246
312 309 302 296 302 292 291 276 230 201 184 168 190 195 220 204 176 172 173 175 157 145 134 161 175 175 205 213 220 237 220 247 259 171 232 264 270 273 274 269 264 260 254 252 250
312 312 304 297 297 300 292 295 223 176 179 182 188 161 142 146 143 163 170 166 168 171 166 186 205 214 224 229 257 279 283 277 276 288 283 276 276 276 274 267 262 258 255 252 250
316 313 308 305 291 292 273 279 262 229 165 207 165 146 147 156 138 165 169 167 184 185 155 163 227 234 247 265 250 253 263 266 278 288 294 293 285 286 271 260 257 253 251 252 252
319 304 302 297 298 289 269 267 228 243 209 185 172 171 163 163 170 174 181 189 194 199 201 207 134 243 237 226 232 240 257 277 284 302 291 284 287 261 265 253 253 249 251 252 252
313 297 295 301 297 266 250 263 226 226 188 157 194 206 167 155 183 178 180 169 198 209 195 230 227 216 217 230 232 259 271 272 279 292 281 86 294 283 288 274 232 233 247 247 248
313 310 300 297 260 270 258 331 226 203 188 147 147 155 176 172 131 178 178 190 193 194 171 197 218 217 230 228 228 242 327 268 282 286 308 257 246 275 225 256 237 232 242 242 251
320 311 300 270 243 238 253 255 178 217 164 135 132 166 161 182 152 149 178 205 243 211 218 254 157 217 211 220 225 81 265 260 265 272 257 246 224 276 273 281 271 270 227 253 278
326 317 322 229 198 208 202 146 137 256 158 139 156 159 162 172 156 166 177 189 180 170 213 231 229 214 230 227 205 214 208 270 213 208 251 315 217 240 286 301 299 274 227 299 285
332 332 310 199 166 162 163 123 234 138 127 153 137 151 165 164 182 173 178 193 220 214 151 198 199 201 174 214 190 208 207 224 265 247 291 301 252 245 248 273 268 261 263 277 289
336 338 1 182 167 154 152 209 24 142 135 137 136 145 136 179 155 176 195 198 206 200 208 189 246 161 173 195 211 176 209 245 279 279 278 249 271 272 266 270 268 239 251 274 277
338 343 50 151 162 161 192 201 348 80 139 143 131 178 155 172 165 180 178 199 200 206 220 360 241 187 169 221 226 215 329 176 209 272 270 258 268 263 263 275 279 264 203 245 295
339 68 120 141 155 111 129 173 114 138 138 221 144 149 168 170 182 182 185 135 201 193 197 203 222 131 141 209 203 197 227 227 308 230 273 294 271 315 297 319 307 205 222 265 291
101 87 148 138 89 226 149 219 142 149 79 113 131 147 154 169 165 178 172 78 184 188 184 203 218 246 240 246 223 227 217 221 232 233 233 263 271 293 292 282 260 268 249 269 295
64 98 152 223 161 160 90 91 125 140 24 129 119 118 137 153 157 176 179 103 166 177 177 160 212 283 236 209 231 233 246 247 243 270 256 265 263 352 339 286 278 248 270 269 291
93 88 220 301 274 130 110 98 99 31 66 88 103 122 123 145 45 160 155 139 177 196 79 200 225 238 274 325 345 234 249 252 244 255 267 250 269 276 280 265 267 261 286 273 306
47 71 176 166 179 84 110 73 138 130 84 76 87 113 116 131 139 174 171 145 166 190 176 206 243 260 268 276 281 271 272 273 260 252 251 275 281 283 293 297 280 268 269 283 276
33 354 8 139 151 138 86 131 172 115 60 91 116 113 79 104 93 169 177 204 208 173 200 210 258 307 283 276 267 287 286 287 268 266 260 257 268 282 274 274 299 285 269 256 257
11 14 308 170 183 174 179 176 163 154 59 69 107 126 97 65 106 56 282 291 139 173 202 197 221 284 272 316 309 267 285 280 283 285 266 276 283 303 298 297 320 328 314 296 283